Historyczne dane pomiarowe

Dodano dane terminowe – wersja testowa.

Dane z okresu 1951-2019

Wersja bazy: 1.34 [2019-03-16, lista zmian], aktualizacja planowana na 2019-04-15

Dane meteo z obszaru Polski uzyskane na podstawie danych udostępnionych przez Instytut Meteorologii i Gospodarki Wodnej – Państwowy Instytut Badawczy.

 

Wybierz Datę:    

       

TemperaturaWilgotnośćWiatrCiśnienieOpadyŚniegCzas trwania zjawisk
 Stacja t tx tn tng RH VA  wxwx mslp ppp RRR   cm mm wxwxwxwxwxwxwx
2019-07-01 20.6 30.8 8.9- 49.0- 3.0 4.3---- 0.5------------
2019-06-30 19.7 30.0 7.8- 52.5- 0.0 1.3---- 0.0------------
2019-06-29 16.8 22.0 10.5- 61.5- 3.0 1.3---- 0.0------------
2019-06-28 14.0 20.4 7.1- 73.8- 3.3 2.0---- 0.0------------
2019-06-27 21.3 26.1 15.1- 56.8- 2.0 3.7---- 0.0------------
2019-06-26 22.1 29.2 11.8- 57.5- 1.7 2.3---- 0.0------------
2019-06-25 19.9 27.6 10.0- 66.5- 1.7 1.7---- 0.0------------
2019-06-24 17.4 20.3 13.7- 77.8- 6.0 2.3---- 0.0------------
2019-06-23 17.0 19.0 15.2- 85.8- 8.0 2.3---- 1.2------------
2019-06-22 16.3 20.4 11.3- 88.0- 6.7 1.0---- 1.5------------
2019-06-21 17.8 22.3 13.7- 79.3- 6.7 0.7---- 0.5------------
2019-06-20 17.5 21.9 13.7- 91.0- 7.0 1.0---- 3.8------------
2019-06-19 16.5 24.0 9.3- 79.5- 5.7 1.0---- 6.7------------
2019-06-18 14.8 20.0 5.9- 78.8- 5.7 2.3---- 3.7------------
2019-06-17 15.1 18.1 12.3- 89.8- 5.7 1.0---- 12.3------------
2019-06-16 19.8 27.4 11.8- 77.5- 5.3 2.3---- 28.2------------
2019-06-15 21.6 29.1 10.4- 59.5- 2.3 2.0---- 0.0------------
2019-06-14 21.4 27.0 12.7- 71.0- 4.3 2.0---- 0.3------------
2019-06-13 20.9 29.9 10.3- 60.5- 2.0 1.3---- 0.0------------
2019-06-12 21.0 28.1 10.9- 52.8- 1.3 2.0---- 0.0------------
2019-06-11 20.4 27.6 8.8- 49.5- 1.0 2.0---- 0.0------------
2019-06-10 19.1 27.9 8.8- 70.3- 2.0 1.0---- 0.0------------
2019-06-09 17.4 22.5 11.0- 65.5- 3.3 3.0---- 0.0------------
2019-06-08 17.5 25.3 8.4- 58.5- 4.0 2.3---- 0.0------------
2019-06-07 16.3 22.6 7.9- 78.0- 6.3 0.7---- 1.7------------
2019-06-06 15.0 21.5 6.4- 69.3- 4.0 1.7---- 0.3------------
2019-06-05 16.0 23.0 6.4- 65.3- 3.7 2.0---- 0.0------------
2019-06-04 16.6 23.3 7.4- 65.3- 2.7 1.7---- 0.2------------
2019-06-03 15.4 22.3 5.4- 74.0- 3.7 2.3---- 0.6------------
2019-06-02 16.3 21.1 7.9- 61.8- 2.7 1.3---- 0.0------------
2019-06-01 12.5 19.3 3.5- 80.3- 5.7 0.7---- 1.4------------
2019-05-31 10.1 15.0 5.6- 88.8- 5.3 1.3---- 0.6------------
2019-05-30 7.3 8.6 5.9- 94.3- 8.0 1.0---- 19.5------------
2019-05-29 9.6 12.7 6.4- 94.5- 8.0 1.0---- 12.8------------
2019-05-28 13.8 17.9 10.3- 79.3- 7.3 2.0---- 2.6------------
2019-05-27 14.1 20.0 4.9- 62.0- 5.7 0.7---- 0.0------------
2019-05-26 13.5 19.5 4.0- 62.0- 4.7 1.0---- 0.0------------
2019-05-25 12.0 17.9 5.4- 72.8- 2.7 1.0---- 0.0------------
2019-05-24 9.0 10.1 7.4- 95.3- 8.0 0.3---- 6.5------------
2019-05-23 8.9 10.5 7.9- 91.8- 8.0 1.3---- 21.4------------
2019-05-22 11.2 14.2 8.8- 88.0- 7.7 1.3---- 18.9------------
2019-05-21 10.1 15.0 3.6- 76.0- 7.3 1.0---- 8.4------------
2019-05-20 14.8 18.5 9.7- 53.8- 6.0 2.3---- 0.0------------
2019-05-19 12.8 20.0 2.5- 60.8- 5.0 1.3---- 0.7------------
2019-05-18 10.7 19.6 2.5- 76.8- 3.0 1.7---- 0.0------------
2019-05-17 10.5 16.6 4.5- 75.3- 5.0 1.3---- 0.0------------
2019-05-16 9.7 15.1 4.2- 79.8- 6.0 1.7---- 0.0------------
2019-05-15 3.6 5.9 0.4- 96.3- 8.0 0.3---- 12.2------------
2019-05-14 1.6 4.6 -0.4- 93.3- 8.0 0.3---- 16.7-- 7---------
2019-05-13 4.8 7.1 3.5- 93.3- 8.0 2.0---- 11.2------------
2019-05-12 9.6 16.3 4.5- 81.5- 5.7 2.0---- 3.7------------
2019-05-11 10.4 15.4 5.4- 66.5- 5.0 2.3---- 0.0------------
2019-05-10 9.0 13.8 4.2- 81.5- 4.7 1.7---- 0.4------------
2019-05-09 5.6 9.6 0.8- 82.8- 8.0 0.7---- 5.1------------
2019-05-08 5.1 11.6 -2.9- 68.3- 3.3 1.7---- 0.0------------
2019-05-07 3.1 6.6 -0.4- 81.8- 7.3 1.0---- 0.1-- 8---------
2019-05-06 1.1 2.9 -0.4- 87.5- 7.7 1.0---- 9.9-- 7---------
2019-05-05 2.8 9.3 -0.1- 95.8- 8.0 1.7---- 15.7------------
2019-05-04 5.8 10.8 -0.9- 78.8- 6.3 1.3---- 1.4------------
2019-05-03 6.3 11.8 1.5- 90.8- 7.7 1.3---- 8.1------------
188.0 ms

 

Źródłem pochodzenia danych jest Instytut Meteorologii i Gospodarki Wodnej – Państwowy Instytut Badawczy. Dane Instytutu Meteorologii i Gospodarki Wodnej – Państwowego Instytutu Badawczego zostały przetworzone.

Dane źródłowe można odnaleźć na stronie https://dane.imgw.pl